FW6610 Weather Reports


time (UTC)temp
C
wind
direction
speed
KPH
gust
KPH
rain 1hr
cm
rain 24hr
cm
rain mn
cm
humidity
%
barometer
mb
20260904021555 20 0 0.0 0.0 0.00 0.28 0.28 98 1012.7
20260904021032 20 0 0.0 0.0 0.00 0.28 0.28 98 1012.7
20260904020527 20 0 0.0 0.0 0.00 0.28 0.28 98 1012.6
20260904020053 20 0 0.0 0.0 0.00 0.28 0.28 98 1012.7
20260904015528 20 0 0.0 0.0 0.00 0.28 0.28 98 1012.7
20260904015028 20 0 0.0 0.0 0.00 0.28 0.28 98 1012.8
20260904014548 20 0 0.0 0.0 0.00 0.28 0.28 98 1012.9
20260904014030 20 0 0.0 0.0 0.00 0.28 0.28 98 1013.0
20260904013534 20 0 0.0 0.0 0.00 0.28 0.28 98 1013.0
20260904013044 20 0 0.0 0.0 0.00 0.28 0.28 98 1012.7
20260904012532 20 0 0.0 0.0 0.00 0.28 0.28 98 1012.9
20260904012031 20 0 0.0 0.0 0.00 0.28 0.28 98 1012.8
20260904011555 20 0 0.0 0.0 0.00 0.28 0.28 98 1012.9
20260904011029 21 0 0.0 0.0 0.00 0.28 0.28 98 1012.8
20260904010532 21 0 0.0 0.0 0.00 0.28 0.28 98 1012.8
20260904010053 21 0 0.0 0.0 0.00 0.28 0.28 98 1012.9
20260904005527 21 0 0.0 0.0 0.00 0.28 0.28 98 1012.8
20260904005030 21 0 0.0 0.0 0.00 0.28 0.28 98 1012.8
20260904004548 21 0 0.0 0.0 0.00 0.28 0.28 98 1012.9
20260904004030 21 0 0.0 0.0 0.00 0.28 0.28 98 1012.8
20260904003529 21 0 0.0 0.0 0.00 0.28 0.28 98 1012.7
20260904003056 21 0 0.0 0.0 0.00 0.28 0.28 98 1012.8
20260904002534 21 0 0.0 0.0 0.00 0.28 0.28 97 1012.7
20260904002034 21 0 0.0 0.0 0.00 0.28 0.28 97 1012.6
20260904001552 21 0 0.0 0.0 0.00 0.28 0.28 97 1012.4
20260904001030 21 0 0.0 0.0 0.00 0.28 0.28 97 1012.3
20260904000530 21 0 0.0 0.0 0.00 0.28 0.28 97 1012.2
20260904000052 21 0 0.0 0.0 0.00 0.28 0.28 97 1012.1
20260903235532 22 0 0.0 0.0 0.00 0.28 0.28 97 1012.0
20260903235030 22 0 0.0 0.0 0.00 0.28 0.28 96 1012.1
20260903234546 22 0 0.0 0.0 0.00 0.28 0.28 96 1012.1
20260903234030 22 0 0.0 0.0 0.00 0.28 0.28 96 1012.0
20260903233530 22 0 0.0 0.0 0.00 0.28 0.28 96 1012.0
20260903233047 22 0 0.0 0.0 0.00 0.28 0.28 96 1012.0
20260903232530 22 0 0.0 0.0 0.00 0.28 0.28 95 1012.1
20260903232029 22 0 0.0 0.0 0.00 0.28 0.28 95 1012.1
20260903231605 23 0 0.0 0.0 0.00 0.28 0.28 94 1012.2
20260903231030 23 0 0.0 0.0 0.00 0.28 0.28 94 1012.1
20260903230529 23 0 0.0 0.0 0.00 0.28 0.28 93 1012.0
20260903230054 23 0 0.0 0.0 0.00 0.28 0.28 93 1012.0
20260903225531 23 0 0.0 0.0 0.00 0.28 0.28 93 1012.0
20260903225027 23 0 0.0 0.0 0.00 0.28 0.28 92 1012.0
20260903224548 24 0 0.0 0.0 0.00 0.28 0.28 91 1012.0
20260903224035 24 0 0.0 0.0 0.00 0.28 0.28 91 1011.9
20260903223529 24 0 0.0 0.0 0.00 0.28 0.28 91 1011.9
20260903223045 25 0 0.0 0.0 0.00 0.28 0.28 90 1012.0
20260903222532 25 0 0.0 0.0 0.00 0.28 0.28 90 1012.0
20260903222029 25 0 0.0 0.0 0.00 0.28 0.28 89 1012.0
20260903221553 25 0 0.0 0.0 0.00 0.28 0.28 88 1011.9
20260903221035 26 0 0.0 0.0 0.00 0.28 0.28 86 1012.1
20260903220528 26 0 0.0 0.0 0.00 0.28 0.28 84 1012.0
20260903220054 26 0 0.0 1.6 0.00 0.28 0.28 87 1012.1
20260903215530 26 0 0.0 1.6 0.00 0.28 0.28 87 1012.2
20260903215028 26 0 0.0 1.6 0.00 0.28 0.28 86 1012.2
20260903214557 25 0 0.0 0.0 0.00 0.28 0.28 90 1012.2
20260903214035 25 0 0.0 0.0 0.00 0.28 0.28 89 1012.3
20260903213528 25 0 0.0 0.0 0.00 0.28 0.28 91 1012.3
20260903213045 25 0 0.0 0.0 0.00 0.28 0.28 91 1012.4
20260903212530 25 0 0.0 1.6 0.00 0.28 0.28 91 1012.4
20260903212029 25 0 0.0 1.6 0.00 0.28 0.28 90 1012.4
20260903211553 25 0 0.0 0.0 0.00 0.28 0.28 91 1012.4
20260903211033 25 0 0.0 0.0 0.00 0.28 0.28 90 1012.2
20260903210529 25 0 0.0 0.0 0.00 0.28 0.28 90 1012.2
20260903210053 25 0 0.0 0.0 0.00 0.28 0.28 89 1012.3
20260903205526 25 0 0.0 0.0 0.00 0.28 0.28 89 1012.3
20260903205031 25 0 0.0 0.0 0.00 0.28 0.28 89 1012.3
20260903204552 25 0 0.0 1.6 0.00 0.28 0.28 89 1012.2
20260903204032 25 0 0.0 1.6 0.00 0.28 0.28 88 1012.3
20260903203528 25 0 0.0 0.0 0.00 0.28 0.28 90 1012.4
20260903203052 25 0 0.0 0.0 0.00 0.28 0.28 87 1012.3
20260903202529 25 0 0.0 0.0 0.00 0.28 0.28 89 1012.2
20260903202032 25 0 0.0 0.0 0.00 0.28 0.28 89 1012.1
20260903201544 25 0 0.0 1.6 0.00 0.28 0.28 89 1012.1
20260903201030 25 0 0.0 1.6 0.00 0.28 0.28 88 1012.2
20260903200529 25 0 0.0 1.6 0.00 0.28 0.28 88 1012.3
20260903200053 25 0 0.0 0.0 0.00 0.28 0.28 89 1012.2
20260903195528 25 0 0.0 0.0 0.00 0.28 0.28 87 1012.2
20260903195027 25 0 0.0 0.0 0.00 0.28 0.28 87 1012.3
20260903194547 25 0 0.0 0.0 0.00 0.28 0.28 88 1012.3
20260903194027 25 0 0.0 0.0 0.00 0.28 0.28 89 1012.5
20260903193528 25 0 0.0 0.0 0.00 0.28 0.28 88 1012.5
20260903193047 25 0 0.0 1.6 0.00 0.28 0.28 87 1012.7
20260903192530 25 0 0.0 1.6 0.00 0.28 0.28 86 1012.5
20260903192029 25 0 0.0 1.6 0.00 0.28 0.28 85 1012.8
20260903191552 26 24 1.6 3.2 0.00 0.28 0.28 83 1012.7
20260903191028 26 0 1.6 4.8 0.00 0.28 0.28 81 1012.8
20260903190527 26 165 0.0 4.8 0.00 0.28 0.28 84 1012.8
20260903190052 26 1 0.0 4.8 0.00 0.28 0.28 84 1012.8
20260903185530 26 0 0.0 0.0 0.00 0.28 0.28 86 1012.8
20260903185032 26 0 0.0 1.6 0.00 0.28 0.28 85 1012.8
20260903184555 25 0 0.0 1.6 0.00 0.28 0.28 85 1012.9
20260903184028 25 0 0.0 1.6 0.00 0.28 0.28 84 1013.0
20260903183527 25 0 0.0 1.6 0.00 0.28 0.28 84 1013.1
20260903183047 25 196 0.0 1.6 0.00 0.28 0.28 85 1013.1
20260903182526 25 0 0.0 6.4 0.00 0.28 0.28 85 1013.2
20260903182028 25 115 1.6 6.4 0.00 0.28 0.28 84 1013.3
20260903181551 25 206 1.6 6.4 0.00 0.28 0.28 83 1013.4
20260903181028 25 0 0.0 6.4 0.00 0.28 0.28 85 1013.3
20260903180529 25 266 1.6 6.4 0.00 0.28 0.28 85 1013.4
20260903180112 24 222 0.0 6.4 0.00 0.28 0.28 88 1013.4
20260903175527 23 115 0.0 6.4 0.00 0.28 0.28 89 1013.5
20260903175029 23 255 3.2 6.4 0.00 0.28 0.28 89 1013.6
20260903174547 23 0 0.0 0.0 0.00 0.28 0.28 91 1013.6
20260903174026 22 0 0.0 0.0 0.00 0.28 0.28 91 1013.7
20260903173528 22 0 0.0 1.6 0.00 0.28 0.28 90 1013.9
20260903173046 22 0 0.0 1.6 0.00 0.28 0.28 90 1013.8
20260903172529 22 0 0.0 1.6 0.00 0.28 0.28 88 1014.0
20260903172028 22 0 0.0 1.6 0.00 0.28 0.28 88 1013.9
20260903171554 23 0 0.0 3.2 0.00 0.28 0.28 89 1013.9
20260903171031 22 0 0.0 3.2 0.00 0.28 0.28 91 1013.8
20260903170530 22 294 0.0 8.0 0.00 0.28 0.28 90 1013.6
20260903170052 22 0 0.0 8.0 0.00 0.28 0.28 89 1013.9
20260903165527 22 238 0.0 3.2 0.00 0.28 0.28 89 1013.9
20260903165029 22 0 0.0 3.2 0.00 0.28 0.28 91 1014.0
20260903164559 22 63 0.0 3.2 0.00 0.28 0.28 90 1014.0
20260903164032 22 196 0.0 3.2 0.00 0.28 0.28 90 1014.2
20260903163529 22 0 0.0 1.6 0.00 0.28 0.28 91 1014.3
20260903163046 21 0 0.0 1.6 0.00 0.28 0.28 91 1014.4
20260903162527 21 126 0.0 3.2 0.00 0.28 0.28 91 1014.5
20260903162027 21 285 0.0 3.2 0.00 0.28 0.28 92 1014.3
20260903161554 21 0 0.0 3.2 0.00 0.28 0.28 91 1014.4
20260903161030 21 251 0.0 1.6 0.00 0.28 0.28 92 1014.3
20260903160529 21 129 0.0 1.6 0.00 0.28 0.28 93 1014.5
20260903160054 20 0 0.0 1.6 0.00 0.28 0.28 93 1014.3
20260903155535 20 0 0.0 1.6 0.00 0.28 0.28 93 1014.4
20260903155030 20 0 0.0 1.6 0.00 0.28 0.28 93 1014.6
20260903154545 20 229 0.0 3.2 0.00 0.28 0.28 95 1014.5
20260903154029 20 0 0.0 3.2 0.00 0.28 0.28 94 1014.4
20260903153528 20 106 0.0 1.6 0.00 0.28 0.28 95 1014.7
20260903153048 20 0 0.0 1.6 0.00 0.28 0.28 96 1014.5
20260903152530 19 0 0.0 1.6 0.00 0.28 0.28 95 1014.6
20260903152028 19 356 0.0 1.6 0.00 0.28 0.28 96 1014.8
20260903151554 19 0 0.0 0.0 0.00 0.28 0.28 97 1014.6
20260903151027 18 0 0.0 1.6 0.00 0.28 0.28 97 1014.7
20260903150529 18 347 0.0 1.6 0.00 0.28 0.28 97 1014.6
20260903150059 18 0 0.0 1.6 0.00 0.28 0.28 97 1014.6
20260903145529 18 32 0.0 1.6 0.00 0.28 0.28 97 1014.6
20260903145028 18 31 0.0 1.6 0.00 0.28 0.28 97 1014.6
20260903144548 18 0 0.0 1.6 0.00 0.28 0.28 96 1014.8
20260903144029 18 0 0.0 1.6 0.00 0.28 0.28 97 1014.8
20260903143528 18 0 0.0 3.2 0.00 0.28 0.28 97 1014.8
20260903143042 18 0 0.0 3.2 0.00 0.28 0.28 97 1014.8
20260903142529 18 0 0.0 1.6 0.00 0.28 0.28 97 1014.8
20260903142028 18 0 0.0 1.6 0.00 0.28 0.28 97 1014.9
20260903141554 17 0 0.0 1.6 0.00 0.28 0.28 97 1014.8
20260903141031 17 0 0.0 0.0 0.00 0.28 0.28 98 1015.0
20260903140531 17 0 0.0 0.0 0.00 0.28 0.28 97 1015.0
20260903140053 17 0 0.0 0.0 0.00 0.28 0.28 97 1015.0
20260903135527 17 0 0.0 0.0 0.00 0.28 0.28 97 1014.8
20260903135030 17 0 0.0 0.0 0.00 0.28 0.28 97 1015.0
20260903134546 17 0 0.0 0.0 0.00 0.28 0.28 97 1014.8
20260903134029 17 0 0.0 0.0 0.00 0.28 0.28 98 1014.9
20260903133530 17 0 0.0 0.0 0.00 0.28 0.28 98 1014.9
20260903133046 17 0 0.0 0.0 0.00 0.28 0.28 98 1015.1
20260903132528 17 0 0.0 0.0 0.00 0.28 0.28 98 1015.1
20260903132027 17 0 0.0 0.0 0.00 0.28 0.28 98 1015.2
20260903131553 17 0 0.0 0.0 0.00 0.28 0.28 98 1015.4
20260903131029 17 0 0.0 0.0 0.00 0.28 0.28 98 1015.4
20260903130529 17 0 0.0 0.0 0.00 0.28 0.28 98 1015.3
20260903130112 17 0 0.0 0.0 0.00 0.28 0.28 98 1015.4
20260903125531 16 0 0.0 0.0 0.00 0.28 0.28 98 1015.5
20260903125029 16 0 0.0 0.0 0.00 0.28 0.28 98 1015.7
20260903124547 16 0 0.0 0.0 0.00 0.28 0.28 98 1015.5
20260903124027 16 0 0.0 0.0 0.00 0.28 0.28 98 1015.6
20260903123530 16 0 0.0 0.0 0.00 0.28 0.28 98 1015.7
20260903123052 16 0 0.0 0.0 0.00 0.28 0.28 98 1015.7
20260903122527 16 0 0.0 0.0 0.00 0.28 0.28 98 1015.7
20260903122028 16 0 0.0 0.0 0.00 0.28 0.28 98 1015.7
20260903121553 16 0 0.0 0.0 0.00 0.28 0.28 98 1015.9
20260903121028 16 0 0.0 0.0 0.00 0.28 0.28 98 1015.9
20260903120532 16 0 0.0 0.0 0.00 0.28 0.28 98 1015.8
20260903120048 16 0 0.0 0.0 0.00 0.28 0.28 98 1016.0
20260903115529 16 0 0.0 0.0 0.00 0.28 0.28 98 1016.0
20260903115029 16 0 0.0 0.0 0.00 0.28 0.28 98 1016.1
20260903114551 16 0 0.0 0.0 0.00 0.28 0.28 98 1016.1
20260903114029 16 0 0.0 0.0 0.00 0.28 0.28 98 1016.1
20260903113530 16 0 0.0 0.0 0.00 0.28 0.28 98 1016.1
20260903113045 16 0 0.0 0.0 0.00 0.28 0.28 98 1015.9
20260903112528 16 0 0.0 0.0 0.00 0.28 0.28 98 1016.0
20260903112030 16 0 0.0 0.0 0.00 0.28 0.28 98 1016.1
20260903111603 16 0 0.0 0.0 0.00 0.28 0.28 98 1016.0
20260903111027 16 0 0.0 0.0 0.00 0.28 0.28 98 1016.1
20260903110531 16 0 0.0 0.0 0.00 0.28 0.28 98 1016.1
20260903110110 16 0 0.0 0.0 0.00 0.28 0.28 98 1016.2
20260903105529 16 0 0.0 0.0 0.00 0.28 0.28 98 1016.1
20260903105028 16 0 0.0 0.0 0.00 0.28 0.28 98 1016.0
20260903104549 16 0 0.0 0.0 0.00 0.28 0.28 98 1016.0
20260903104028 16 0 0.0 0.0 0.00 0.28 0.28 98 1015.9
20260903103532 16 0 0.0 0.0 0.00 0.28 0.28 98 1016.2
20260903103053 16 0 0.0 0.0 0.00 0.28 0.28 98 1015.9
20260903102528 16 0 0.0 0.0 0.00 0.28 0.28 98 1015.9
20260903102026 16 0 0.0 0.0 0.00 0.28 0.28 98 1016.1
20260903101559 16 0 0.0 0.0 0.00 0.28 0.28 98 1015.9
20260903101031 16 0 0.0 0.0 0.00 0.28 0.28 98 1015.7
20260903100530 16 0 0.0 0.0 0.00 0.28 0.28 98 1015.6
20260903100045 16 0 0.0 0.0 0.00 0.28 0.28 98 1015.8
20260903095532 16 0 0.0 0.0 0.00 0.28 0.28 98 1015.6
20260903095029 16 0 0.0 0.0 0.00 0.28 0.28 98 1015.7
20260903094553 16 0 0.0 0.0 0.00 0.28 0.28 98 1015.7
20260903094025 16 0 0.0 0.0 0.00 0.28 0.28 98 1015.9
20260903093604 16 0 0.0 0.0 0.00 0.28 0.28 98 1015.9
20260903093053 16 0 0.0 0.0 0.00 0.28 0.28 98 1015.9
20260903092533 16 0 0.0 0.0 0.00 0.28 0.28 98 1015.9
20260903092033 16 0 0.0 0.0 0.00 0.28 0.28 98 1015.8
20260903091549 16 0 0.0 0.0 0.00 0.28 0.28 98 1015.7
20260903091032 16 0 0.0 0.0 0.00 0.28 0.28 98 1015.8
20260903090531 16 0 0.0 0.0 0.00 0.28 0.28 98 1015.9
20260903090056 16 0 0.0 0.0 0.00 0.28 0.28 98 1016.1
20260903085531 16 0 0.0 0.0 0.00 0.28 0.28 98 1016.2
20260903085030 16 0 0.0 0.0 0.00 0.28 0.28 98 1016.2
20260903084553 16 0 0.0 0.0 0.00 0.28 0.28 98 1016.3
20260903084031 16 0 0.0 0.0 0.00 0.28 0.28 98 1016.3
20260903083531 16 0 0.0 0.0 0.00 0.28 0.28 98 1016.4
20260903083050 16 0 0.0 0.0 0.00 0.28 0.28 97 1016.4
20260903082531 16 0 0.0 0.0 0.00 0.28 0.28 97 1016.5
20260903082031 16 0 0.0 0.0 0.00 0.28 0.28 97 1016.4
20260903081554 16 0 0.0 0.0 0.00 0.28 0.28 97 1016.3
20260903081030 16 0 0.0 0.0 0.00 0.28 0.28 97 1016.4
20260903080530 16 0 0.0 0.0 0.00 0.28 0.28 97 1016.5
20260903080052 16 0 0.0 0.0 0.00 0.28 0.28 97 1016.4
20260903075531 16 0 0.0 0.0 0.00 0.28 0.28 97 1016.6
20260903075030 16 0 0.0 0.0 0.00 0.28 0.28 97 1016.6
20260903074601 16 0 0.0 0.0 0.00 0.28 0.28 97 1016.6
20260903074035 16 0 0.0 0.0 0.00 0.28 0.28 97 1016.7
20260903073530 16 0 0.0 0.0 0.03 0.28 0.28 97 1016.6
20260903073047 16 0 0.0 0.0 0.03 0.28 0.28 97 1016.7
20260903072530 16 0 0.0 0.0 0.03 0.28 0.28 97 1016.8
20260903072038 16 0 0.0 0.0 0.03 0.28 0.28 97 1016.7
20260903071554 16 0 0.0 0.0 0.03 0.28 0.28 97 1016.9
20260903071030 16 0 0.0 0.0 0.05 0.28 0.28 97 1016.8
20260903070530 16 0 0.0 0.0 0.05 0.28 0.28 96 1016.8
20260903070135 16 0 0.0 0.0 0.08 0.28 0.28 96 1017.0
20260903065528 16 0 0.0 0.0 0.10 0.28 0.28 96 1016.8
20260903065026 16 0 0.0 0.0 0.15 0.28 0.28 96 1016.5
20260903064547 16 0 0.0 0.0 0.20 0.28 0.28 96 1016.7
20260903064029 16 0 0.0 0.0 0.25 0.28 0.28 96 1016.2
20260903063532 16 0 0.0 0.0 0.23 0.25 0.25 96 1016.3
20260903063050 16 0 0.0 0.0 0.25 0.25 0.25 96 1016.3
20260903062527 16 0 0.0 0.0 0.25 0.25 0.25 95 1016.5
20260903062030 16 0 0.0 0.0 0.25 0.25 0.25 95 1016.7
20260903061554 16 0 0.0 0.0 0.25 0.25 0.25 95 1016.8
20260903061033 16 0 0.0 0.0 0.23 0.23 0.23 94 1017.3
20260903060528 16 0 0.0 0.0 0.23 0.23 0.23 94 1017.4
20260903060051 16 0 0.0 0.0 0.20 0.20 0.20 94 1017.5
20260903055527 16 0 0.0 0.0 0.18 0.18 0.18 94 1017.4
20260903055026 17 0 0.0 0.0 0.13 0.13 0.13 93 1017.5
20260903054553 17 0 0.0 0.0 0.08 0.08 0.08 93 1017.8
20260903054028 17 0 0.0 0.0 0.03 0.03 0.03 92 1018.1
20260903053528 17 0 0.0 0.0 0.03 0.03 0.03 92 1018.0
20260903053107 17 0 0.0 0.0 0.00 0.00 0.00 91 1018.2
20260903052529 17 0 0.0 0.0 0.00 0.00 0.00 91 1018.4
20260903052028 17 0 0.0 0.0 0.00 0.00 0.00 91 1018.4
20260903051552 17 0 0.0 0.0 0.00 0.00 0.00 90 1018.5
20260903051033 17 0 0.0 0.0 0.00 0.00 0.00 90 1018.5
20260903050532 17 0 0.0 0.0 0.00 0.00 0.00 90 1018.5
20260903050046 17 0 0.0 0.0 0.00 0.00 0.00 89 1018.7
20260903045527 17 0 0.0 0.0 0.00 0.00 0.00 89 1018.6
20260903045028 17 0 0.0 0.0 0.00 0.00 0.00 88 1018.6
20260903044556 17 0 0.0 0.0 0.00 0.00 0.00 88 1018.5
20260903044031 17 0 0.0 0.0 0.00 0.00 0.00 88 1018.4
20260903043529 17 0 0.0 0.0 0.00 0.00 0.00 88 1018.5
20260903043051 17 0 0.0 0.0 0.00 0.00 0.00 87 1018.6
20260903042531 18 0 0.0 0.0 0.00 0.00 0.00 87 1018.6
20260903042029 18 0 0.0 0.0 0.00 0.00 0.00 87 1018.4
20260903041548 18 0 0.0 0.0 0.00 0.00 0.00 87 1018.6
20260903041028 18 0 0.0 0.0 0.00 0.00 0.00 86 1018.8
20260903040530 18 0 0.0 0.0 0.00 0.00 0.00 86 1018.9
20260903040046 18 0 0.0 0.0 0.00 0.00 0.00 86 1018.8
20260903035527 18 0 0.0 0.0 0.00 0.00 0.00 86 1018.8
20260903035027 18 0 0.0 0.0 0.00 0.00 0.00 86 1018.9
20260903034552 18 0 0.0 0.0 0.00 0.00 0.00 86 1018.7
20260903034026 18 0 0.0 1.6 0.00 0.00 0.00 85 1018.4
20260903033529 18 0 0.0 1.6 0.00 0.00 0.00 85 1018.5
20260903033107 18 148 0.0 1.6 0.00 0.00 0.00 86 1018.7
20260903032532 18 0 0.0 1.6 0.00 0.00 0.00 86 1018.6
20260903032029 18 0 0.0 1.6 0.00 0.00 0.00 86 1018.5
20260903031544 18 0 0.0 0.0 0.00 0.00 0.00 86 1018.4
20260903031029 18 0 0.0 1.6 0.00 0.00 0.00 86 1018.7
20260903030530 18 0 0.0 1.6 0.00 0.00 0.00 87 1018.6
20260903030047 18 0 0.0 0.0 0.00 0.00 0.00 87 1018.8
20260903025525 18 0 0.0 0.0 0.00 0.00 0.00 86 1018.9
20260903025030 18 0 0.0 0.0 0.00 0.00 0.00 86 1018.7
20260903024545 18 0 0.0 0.0 0.00 0.00 0.00 85 1018.9
20260903024025 18 0 0.0 1.6 0.00 0.00 0.00 85 1019.2
20260903023528 18 0 0.0 1.6 0.00 0.00 0.00 84 1019.6
20260903023054 18 0 0.0 1.6 0.00 0.00 0.00 84 1019.5
20260903022529 18 0 0.0 0.0 0.00 0.00 0.00 84 1019.9
20260903022026 18 0 0.0 0.0 0.00 0.00 0.00 84 1019.9